SCP
0 0 0 0 0 0 0 0 0 0 0 0 0 -0 -0 -0 -0 -0 -0 -0 -0 -0 -0 -0 0 0 0 0 0 0 0 0 -0 -0 0 0 0 0 0 0 0 0 0 0 0 0 0
0 0 0 0 0 0 0 0 0 0 0 0 0 0 0 -0 -0 -0 -0 -0 -0 -0 -0 0 0 0 0 0 0 0 0 0 0 0 0 0 0 0 0 0 0 0 0 0 0 0 0
0 0 0 0 0 0 0 0 0 0 0 0 0 0 -0 -0 -0 -0 -0 -0 -0 0 -0 -0 -0 0 0 0 0 0 0 0 0 0 0 0 0 0 0 0 0 0 0 0 0 0 0
0 0 0 0 0 0 0 0 0 0 0 0 0 0 0 0 -0 -0 -0 -0 -0 -0 0 0 0 -0 0 0 0 0 0 0 0 0 0 0 0 0 0 0 0 0 0 0 0 0 0
0 0 0 0 0 0 0 0 0 0 0 0 0 0 0 -0 -0 -0 -0 -0 -0 -0 0 0 0 0 0 0 0 0 0 0 0 0 0 0 0 0 0 0 0 0 0 0 0 0 0
0 0 0 0 0 0 0 0 0 0 0 0 0 0 0 0 0 -0 -0 -0 0 -0 -0 0 0 0 0 0 0 0 0 -0 0 0 0 0 0 0 0 0 0 0 0 0 0 0 0
0 0 0 0 0 0 0 0 0 0 -0 -0 0 0 0 0 0 0 0 0 0 0 0 -0 0 0 0 0 0 0 0 0 0 0 0 0 0 0 -0 0 0 0 0 0 0 0 0
0 0 0 0 0 0 0 0 -0 -0 -0 -0 -0 -0 0 0 0 -0 0 0 0 -0 0 0 0 0 0 0 0 0 0 0 0 0 -0 0 0 -0 0 0 0 0 0 0 0 0 0
-0 -0 0 0 0 0 0 0 -0 -0 -0 -0 -0 -0 -0 0 -0 0 0 0 0 0 0 0 0 0 0 0 0 0 0 0 0 0 0 0 0 0 0 0 0 0 0 0 0 0 0
0 -0 0 0 0 0 0 0 -0 -0 -0 -0 -0 -0 0 -0 0 0 0 0 0 0 0 0 0 0 0 0 0 0 0 0 0 0 0 0 0 0 0 0 0 0 -0 0 0 0 0
0 0 0 0 0 0 0 0 -0 -0 -0 -0 -0 -0 -0 0 -0 0 0 0 -0 0 0 0 0 0 0 0 0 0 0 0 0 -0 0 0 0 0 0 0 0 0 0 0 0 0 0
0 0 0 0 0 0 0 0 0 0 -0 -0 -0 -0 -0 0 0 0 0 0 0 0 0 0 0 0 0 0 0 0 0 0 -0 -0 0 0 0 0 0 0 0 0 0 0 0 0 0
0 0 -0 0 0 0 0 0 0 0 -0 -0 -0 0 0 -0 0 0 0 0 0 0 0 0 0 0 0 0 0 0 0 0 0 0 0 0 0 0 0 0 0 0 0 0 0 0 0
0 0 0 0 0 0 0 0 0 0 0 0 -0 0 0 0 0 0 0 0 0 0 0 0 0 0 0 0 0 0 0 0 0 0 -0 0 0 0 0 0 0 0 0 0 0 0 0
0 0 0 0 0 0 0 0 0 0 0 0 -0 0 0 0 0 0 0 0 0 0 0 0 0 0 0 0 0 0 0 0 0 0 0 0 0 0 0 0 0 0 0 0 0 0 0
0 0 0 0 0 0 0 0 0 0 0 0 0 0 0 0 0 0 0 0 0 0 0 0 0 0 0 0 0 0 0 0 0 0 0 0 0 0 0 0 0 0 0 0 0 0 0
0 0 0 0 0 0 0 0 0 0 0 -0 0 0 0 0 0 0 0 0 0 0 0 0 0 0 0 0 0 0 0 0 0 0 0 0 0 0 0 0 0 0 0 0 0 0 0
0 0 0 0 0 0 0 0 0 0 0 -0 0 0 0 0 0 0 0 0 0 0 0 0 0 0 0 0 0 0 0 -0 0 0 0 0 0 0 0 0 0 0 0 0 0 0 0
0 0 0 0 0 0 0 0 0 0 0 0 0 0 0 0 0 0 0 0 0 0 0 0 0 0 0 0 0 0 0 0 0 0 0 0 0 0 0 0 0 0 0 0 0 0 0
0 0 0 0 0 0 0 0 0 0 0 0 0 0 0 0 0 0 0 0 0 0 0 0 0 0 0 0 0 0 0 0 0 0 0 0 -0 -0 -0 -0 -0 -0 0 0 0 0 0
0 0 0 0 0 0 0 0 0 0 0 0 0 0 0 0 0 0 0 0 0 0 0 0 0 0 0 0 0 0 -0 -0 0 0 0 0 -0 0 -0 -0 0 0 -0 0 0 0 0
0 0 0 0 0 0 0 0 0 0 0 0 0 0 0 0 0 0 0 0 0 0 0 0 0 0 0 0 0 -0 0 0 0 0 -0 0 -0 -0 -0 -0 -0 -0 -0 -0 -0 -0 -0
0 0 0 0 0 0 0 0 0 0 0 0 0 0 0 0 0 0 0 0 0 0 0 0 0 0 0 0 -0 -0 0 0 0 0 0 -0 0 0 0 -0 0 -0 -0 -0 -0 -0 -0
0 0 0 0 0 0 0 0 0 0 0 0 0 0 0 0 0 0 0 0 0 0 0 0 0 0 0 -0 -0 -0 -0 -0 -0 0 0 0 0 0 -0 -0 -0 0 -0 -0 0 0 0
0 0 0 0 0 0 0 0 0 0 0 0 0 0 0 0 0 0 0 0 0 0 0 0 0 0 0 -0 0 0 0 0 0 0 0 0 0 0 0 0 -0 -0 0 0 0 0 0
0 0 0 0 0 0 0 0 0 0 0 0 0 0 0 0 0 0 0 0 0 0 0 0 0 0 0 0 0 0 0 0 0 0 0 0 0 0 0 0 0 0 0 0 0 0 0
0 0 0 0 0 0 0 0 0 0 0 0 0 0 0 0 0 0 0 0 0 0 0 0 0 0 0 0 0 0 0 -0 0 0 0 0 0 0 0 0 0 0 0 0 0 0 0
0 0 0 0 0 0 0 0 0 0 0 0 0 0 0 0 0 0 0 0 0 0 0 0 0 0 0 0 0 0 0 0 0 0 -0 0 0 0 0 0 0 0 0 0 0 -0 0
0 0 0 0 0 0 0 0 0 0 0 0 0 0 0 0 0 0 0 -0 -0 0 0 0 0 0 0 0 0 0 0 0 0 -0 0 0 0 0 0 0 -0 0 0 0 0 0 -0
Wind_Speed_500mb
51 52 49 45 40 38 37 37 39 39 38 38 35 31 29 25 26 26 25 24 22 18 16 14 10 7 4 14 17 13 6 7 6 2 7 13 23 29 35 36 47 43 46 55 56 54 60
53 52 51 46 42 41 41 41 41 42 41 39 35 30 28 23 22 21 22 20 17 14 11 12 9 7 7 27 6 9 10 6 5 6 6 9 10 15 29 33 37 38 44 47 57 52 47
54 53 51 49 47 44 43 43 43 43 44 40 34 29 23 21 20 18 13 12 12 12 8 7 7 9 19 23 9 14 14 11 10 10 13 10 12 17 12 21 36 39 40 36 42 49 44
56 51 50 51 50 50 46 45 46 47 44 40 33 24 20 16 15 11 12 11 8 6 4 4 4 5 17 10 16 18 16 16 14 12 15 14 16 24 30 31 19 28 36 39 41 44 51
57 52 48 50 51 50 50 53 50 47 45 40 32 21 14 11 7 8 7 12 9 2 2 3 1 9 21 12 21 21 21 19 18 16 18 19 21 30 31 24 29 34 33 40 43 44 31
56 53 52 49 51 54 55 56 55 55 48 37 30 20 11 4 5 9 6 8 8 3 4 4 13 14 21 17 19 16 19 20 18 18 20 23 31 26 27 26 30 33 36 34 35 20 28
55 57 52 53 52 52 55 58 58 58 51 40 28 17 9 3 5 10 7 11 7 8 19 25 4 23 9 11 16 22 23 21 23 26 28 36 21 29 35 33 32 38 30 37 31 17 15
52 57 59 56 53 53 54 56 58 56 50 41 32 16 5 3 4 10 16 9 11 15 22 21 21 24 22 13 18 29 25 27 28 28 32 24 31 35 35 27 26 32 37 38 34 27 20
48 52 59 60 56 54 54 54 55 55 47 42 31 18 4 5 3 7 6 8 15 17 16 18 14 16 22 26 28 24 35 32 33 29 32 32 33 21 25 25 31 35 35 33 34 24 24
45 47 54 60 61 56 55 53 52 52 47 37 32 17 6 5 4 3 3 16 19 9 11 26 20 14 18 23 28 31 27 32 29 35 31 30 26 20 23 32 33 34 33 32 32 24 28
45 47 48 55 60 61 55 52 48 48 45 35 26 16 4 5 10 13 12 19 10 6 10 12 17 9 12 30 10 29 22 29 33 34 26 31 22 21 28 35 27 28 30 24 23 31 34
41 47 47 49 56 61 61 56 51 44 42 39 23 14 9 13 10 11 19 15 5 13 10 13 10 15 27 32 31 25 21 29 36 36 37 45 46 27 30 25 24 25 36 27 32 29 33
37 43 48 47 51 57 61 60 57 50 43 37 28 20 14 7 11 18 15 9 13 13 7 6 9 14 23 24 24 27 30 35 33 37 39 43 45 47 44 36 32 28 23 26 31 31 33
35 39 45 49 48 54 59 64 60 54 50 43 32 20 18 11 14 16 7 16 16 13 11 9 19 27 31 31 34 31 33 33 39 45 36 35 38 32 32 38 37 26 29 23 24 25 26
37 38 42 49 50 51 56 60 63 58 55 47 31 6 10 10 11 12 20 16 25 20 10 18 27 37 33 16 8 28 24 33 37 31 17 30 36 9 21 31 32 39 37 32 38 41 35
40 38 38 44 51 53 55 60 61 60 57 51 15 9 7 16 9 11 21 25 26 3 16 23 29 22 29 28 23 27 28 23 18 21 19 29 31 35 8 19 32 40 10 20 22 37 39
39 38 36 43 47 52 54 58 64 60 54 46 12 15 5 7 10 19 17 26 20 19 17 14 24 33 37 38 37 40 40 34 4 29 15 24 18 28 12 23 33 30 35 28 26 14 13
36 46 32 38 45 48 51 53 59 64 58 46 11 9 1 6 19 8 16 12 15 26 26 26 26 31 31 31 33 34 37 29 5 30 26 14 12 21 34 31 29 29 28 34 10 27 31
38 46 36 34 40 48 47 48 51 55 56 56 22 18 5 6 10 15 25 24 26 26 24 13 20 23 27 31 34 31 32 17 20 16 18 14 12 18 26 23 18 30 29 35 36 36 45
33 46 41 33 39 45 45 44 45 46 45 39 16 9 3 6 7 13 22 27 12 10 21 26 21 32 30 31 29 35 32 6 14 18 16 2 25 31 28 41 12 11 28 30 21 24 38
33 36 45 32 39 44 43 41 42 41 37 25 8 9 7 12 16 22 22 26 29 22 12 21 16 20 22 27 28 30 30 26 18 18 19 18 35 36 38 42 44 45 41 41 37 44 39
38 34 43 36 34 44 43 39 36 38 32 10 15 13 14 42 30 20 18 19 23 21 19 26 28 28 28 26 27 32 38 32 31 28 27 25 37 38 44 45 44 43 42 44 47 52 50
44 43 51 52 33 38 42 40 37 35 26 11 15 15 14 25 21 19 16 19 20 24 18 23 20 26 29 26 33 35 36 37 30 27 19 22 16 17 29 32 24 32 38 39 43 48 43
50 53 48 70 44 33 36 35 40 32 26 13 17 15 17 19 21 23 26 26 28 29 31 35 40 31 36 30 40 44 49 44 37 31 27 26 27 14 22 31 35 25 28 24 24 28 24
57 55 52 58 49 35 41 34 38 35 25 13 15 9 12 15 31 30 19 26 31 31 30 29 24 18 20 27 21 20 19 19 20 22 21 24 16 8 11 18 35 45 11 21 25 31 36
59 58 56 56 46 45 53 46 30 34 22 16 17 13 11 18 4 26 29 26 19 19 20 9 7 12 12 12 9 15 6 7 9 12 13 7 14 13 14 12 15 19 6 13 24 31 28
62 65 63 56 43 46 45 34 31 33 30 15 11 23 9 20 22 17 20 18 18 16 13 12 5 12 10 8 6 12 9 14 7 9 13 10 9 21 22 16 20 20 25 16 17 19 55
66 64 61 53 51 42 40 33 31 33 32 24 10 20 12 16 41 33 27 22 17 16 12 20 11 8 6 7 4 5 7 9 13 18 18 7 7 10 14 12 15 18 30 11 32 61 59
64 61 56 48 39 41 41 33 34 33 32 25 9 13 13 21 28 32 34 32 29 24 19 11 10 7 9 7 5 7 5 9 10 9 9 8 2 7 10 11 45 51 41 53 56 49 64
Wind_Direction_500mb
7 4 4 4 5 0 357 351 345 340 338 335 334 329 322 318 319 316 310 306 298 286 265 248 246 277 252 241 256 211 159 95 82 54 252 235 244 237 243 245 247 237 252 251 258 257 266
6 7 4 3 360 357 353 349 345 341 339 336 331 326 322 315 315 315 314 310 302 291 277 259 245 255 258 256 158 189 171 196 206 247 259 258 286 283 282 271 255 260 250 263 258 252 253
5 5 8 5 1 1 359 357 353 348 342 338 335 326 321 316 320 320 325 325 312 299 277 246 244 265 267 247 206 200 201 218 243 242 249 254 275 261 298 272 254 256 267 261 258 256 244
6 8 11 12 8 3 1 359 355 354 350 343 337 331 323 320 329 343 345 339 310 293 278 218 225 257 260 223 215 212 217 234 239 236 247 264 263 271 274 272 262 258 249 255 245 235 241
8 9 13 14 10 6 3 359 357 356 355 352 344 336 330 332 1 5 25 19 10 337 168 180 338 218 266 237 212 218 224 233 218 244 250 258 258 257 263 245 254 234 252 246 246 246 233
11 11 9 12 12 7 3 2 359 357 359 3 356 343 335 4 48 24 9 1 6 6 208 257 252 241 241 233 190 209 212 221 232 245 246 240 245 244 235 246 251 252 235 229 254 205 207
9 11 10 7 9 9 5 2 2 -0 2 3 8 359 341 91 69 26 358 332 266 199 234 260 308 258 273 222 221 215 207 219 241 244 251 235 248 246 247 253 257 279 291 284 293 244 255
7 8 8 7 6 6 8 4 2 2 3 6 6 16 21 122 76 58 35 332 9 320 295 242 253 253 243 233 231 221 209 231 221 243 245 232 247 254 270 276 280 272 264 259 261 256 249
4 5 6 6 7 4 4 6 3 1 2 5 6 12 64 133 51 43 13 2 331 316 265 190 227 239 215 210 231 223 213 234 248 247 249 258 279 316 288 261 248 256 258 261 262 261 238
358 4 5 4 4 5 1 2 5 0 358 357 5 12 87 121 48 306 250 337 332 297 270 154 207 203 196 210 233 236 231 239 237 254 267 278 284 284 258 250 259 256 253 241 274 272 260
351 356 3 2 1 1 4 359 0 1 355 347 356 15 88 283 302 294 294 322 309 297 278 131 143 137 184 213 52 210 220 232 253 271 240 259 261 238 253 252 251 267 285 295 258 258 269
349 350 355 360 358 358 359 0 355 356 355 346 326 333 347 340 314 303 318 303 299 234 250 160 182 218 212 217 246 251 209 233 268 276 272 270 260 255 264 264 265 293 275 251 258 255 252
346 347 348 354 355 354 354 357 355 351 349 346 327 288 301 300 294 309 312 264 243 252 87 183 263 216 254 269 264 238 247 248 234 251 249 248 251 244 223 241 242 233 256 268 249 229 244
339 344 345 346 352 350 350 351 352 350 347 344 327 290 263 271 295 313 292 240 261 296 308 31 289 279 270 276 269 258 252 257 255 258 285 274 280 257 215 230 253 215 248 240 262 278 291
328 337 343 343 345 348 347 349 350 349 346 345 338 315 231 249 285 302 270 245 253 349 8 314 310 272 269 238 244 298 263 265 282 295 218 284 294 24 320 252 261 256 218 258 278 269 279
318 327 337 339 339 344 346 346 349 349 347 347 355 268 213 252 277 280 258 264 293 12 302 301 288 294 290 303 299 280 279 296 306 293 312 290 286 280 265 278 264 262 216 245 251 253 250
309 314 332 334 337 340 343 345 345 350 351 347 9 272 200 272 285 246 254 281 326 313 318 288 290 295 294 298 297 292 290 293 72 292 292 308 287 265 278 243 262 241 231 222 238 211 264
308 305 325 331 334 334 339 343 345 348 350 354 309 279 266 318 259 208 268 10 327 291 286 276 275 277 285 296 296 294 293 304 26 305 291 320 286 280 267 258 247 269 213 258 232 256 259
303 301 314 329 331 329 335 340 345 349 351 346 314 291 281 327 287 320 316 299 285 280 283 285 281 287 292 292 292 288 294 303 328 294 323 359 262 278 265 262 223 231 234 236 233 244 257
298 298 304 324 329 325 329 336 341 348 349 345 310 301 212 242 270 304 321 300 290 279 281 273 281 292 285 279 277 284 273 243 271 280 105 301 275 276 276 296 157 256 289 286 260 271 263
283 291 300 323 326 320 323 331 336 345 351 352 313 11 355 306 323 326 300 295 295 290 241 291 285 266 278 288 295 295 290 288 261 227 226 253 266 274 273 285 287 283 268 249 243 271 267
274 276 287 307 315 313 319 325 333 339 355 7 326 342 322 287 276 293 288 284 303 302 301 285 294 295 303 287 294 302 307 298 291 288 276 244 254 266 275 278 272 284 268 264 254 250 250
271 279 293 288 292 310 315 319 331 336 357 328 327 295 294 290 271 282 308 318 303 310 294 272 283 299 288 300 311 300 296 289 280 278 281 275 277 287 271 271 281 267 257 256 252 255 256
275 280 287 287 278 298 305 318 320 329 343 341 318 310 286 283 309 305 317 296 294 293 292 289 296 286 287 294 301 281 257 252 247 249 254 262 269 285 281 295 276 269 324 286 296 289 281
273 274 279 283 276 275 291 295 311 317 334 344 315 311 301 290 304 293 327 308 297 285 262 265 283 292 307 292 282 268 234 220 223 231 236 243 257 245 249 274 289 292 358 345 338 305 306
265 267 270 278 276 277 285 287 288 296 310 353 298 294 291 301 11 324 308 293 292 303 293 229 256 290 285 288 290 263 294 284 167 163 227 229 231 239 229 264 276 315 1 339 319 287 19
259 261 268 276 272 285 287 273 278 293 291 314 271 291 280 277 284 319 305 327 307 296 282 267 0 268 236 272 275 277 292 323 286 207 195 197 191 217 237 257 274 1 345 335 274 321 328
263 267 270 278 273 285 285 268 277 287 293 301 250 277 266 271 285 283 273 276 278 249 286 20 262 196 241 266 274 318 335 306 294 297 284 237 243 216 246 242 259 13 343 308 317 312 318
257 263 270 270 274 285 284 261 272 281 291 296 304 268 275 261 266 286 276 258 249 260 293 287 319 358 350 307 351 328 316 281 335 292 324 306 340 274 268 294 314 321 322 314 318 306 310
Wind_Speed_850mb
51 52 49 45 40 38 37 37 39 39 38 38 35 31 29 25 26 26 25 24 22 18 16 14 10 7 4 14 17 13 6 7 6 2 7 13 23 29 35 36 47 43 46 55 56 54 60
53 52 51 46 42 41 41 41 41 42 41 39 35 30 28 23 22 21 22 20 17 14 11 12 9 7 7 27 6 9 10 6 5 6 6 9 10 15 29 33 37 38 44 47 57 52 47
54 53 51 49 47 44 43 43 43 43 44 40 34 29 23 21 20 18 13 12 12 12 8 7 7 9 19 23 9 14 14 11 10 10 13 10 12 17 12 21 36 39 40 36 42 49 44
56 51 50 51 50 50 46 45 46 47 44 40 33 24 20 16 15 11 12 11 8 6 4 4 4 5 17 10 16 18 16 16 14 12 15 14 16 24 30 31 19 28 36 39 41 44 51
57 52 48 50 51 50 50 53 50 47 45 40 32 21 14 11 7 8 7 12 9 2 2 3 1 9 21 12 21 21 21 19 18 16 18 19 21 30 31 24 29 34 33 40 43 44 31
56 53 52 49 51 54 55 56 55 55 48 37 30 20 11 4 5 9 6 8 8 3 4 4 13 14 21 17 19 16 19 20 18 18 20 23 31 26 27 26 30 33 36 34 35 20 28
55 57 52 53 52 52 55 58 58 58 51 40 28 17 9 3 5 10 7 11 7 8 19 25 4 23 9 11 16 22 23 21 23 26 28 36 21 29 35 33 32 38 30 37 31 17 15
52 57 59 56 53 53 54 56 58 56 50 41 32 16 5 3 4 10 16 9 11 15 22 21 21 24 22 13 18 29 25 27 28 28 32 24 31 35 35 27 26 32 37 38 34 27 20
48 52 59 60 56 54 54 54 55 55 47 42 31 18 4 5 3 7 6 8 15 17 16 18 14 16 22 26 28 24 35 32 33 29 32 32 33 21 25 25 31 35 35 33 34 24 24
45 47 54 60 61 56 55 53 52 52 47 37 32 17 6 5 4 3 3 16 19 9 11 26 20 14 18 23 28 31 27 32 29 35 31 30 26 20 23 32 33 34 33 32 32 24 28
45 47 48 55 60 61 55 52 48 48 45 35 26 16 4 5 10 13 12 19 10 6 10 12 17 9 12 30 10 29 22 29 33 34 26 31 22 21 28 35 27 28 30 24 23 31 34
41 47 47 49 56 61 61 56 51 44 42 39 23 14 9 13 10 11 19 15 5 13 10 13 10 15 27 32 31 25 21 29 36 36 37 45 46 27 30 25 24 25 36 27 32 29 33
37 43 48 47 51 57 61 60 57 50 43 37 28 20 14 7 11 18 15 9 13 13 7 6 9 14 23 24 24 27 30 35 33 37 39 43 45 47 44 36 32 28 23 26 31 31 33
35 39 45 49 48 54 59 64 60 54 50 43 32 20 18 11 14 16 7 16 16 13 11 9 19 27 31 31 34 31 33 33 39 45 36 35 38 32 32 38 37 26 29 23 24 25 26
37 38 42 49 50 51 56 60 63 58 55 47 31 6 10 10 11 12 20 16 25 20 10 18 27 37 33 16 8 28 24 33 37 31 17 30 36 9 21 31 32 39 37 32 38 41 35
40 38 38 44 51 53 55 60 61 60 57 51 15 9 7 16 9 11 21 25 26 3 16 23 29 22 29 28 23 27 28 23 18 21 19 29 31 35 8 19 32 40 10 20 22 37 39
39 38 36 43 47 52 54 58 64 60 54 46 12 15 5 7 10 19 17 26 20 19 17 14 24 33 37 38 37 40 40 34 4 29 15 24 18 28 12 23 33 30 35 28 26 14 13
36 46 32 38 45 48 51 53 59 64 58 46 11 9 1 6 19 8 16 12 15 26 26 26 26 31 31 31 33 34 37 29 5 30 26 14 12 21 34 31 29 29 28 34 10 27 31
38 46 36 34 40 48 47 48 51 55 56 56 22 18 5 6 10 15 25 24 26 26 24 13 20 23 27 31 34 31 32 17 20 16 18 14 12 18 26 23 18 30 29 35 36 36 45
33 46 41 33 39 45 45 44 45 46 45 39 16 9 3 6 7 13 22 27 12 10 21 26 21 32 30 31 29 35 32 6 14 18 16 2 25 31 28 41 12 11 28 30 21 24 38
33 36 45 32 39 44 43 41 42 41 37 25 8 9 7 12 16 22 22 26 29 22 12 21 16 20 22 27 28 30 30 26 18 18 19 18 35 36 38 42 44 45 41 41 37 44 39
38 34 43 36 34 44 43 39 36 38 32 10 15 13 14 42 30 20 18 19 23 21 19 26 28 28 28 26 27 32 38 32 31 28 27 25 37 38 44 45 44 43 42 44 47 52 50
44 43 51 52 33 38 42 40 37 35 26 11 15 15 14 25 21 19 16 19 20 24 18 23 20 26 29 26 33 35 36 37 30 27 19 22 16 17 29 32 24 32 38 39 43 48 43
50 53 48 70 44 33 36 35 40 32 26 13 17 15 17 19 21 23 26 26 28 29 31 35 40 31 36 30 40 44 49 44 37 31 27 26 27 14 22 31 35 25 28 24 24 28 24
57 55 52 58 49 35 41 34 38 35 25 13 15 9 12 15 31 30 19 26 31 31 30 29 24 18 20 27 21 20 19 19 20 22 21 24 16 8 11 18 35 45 11 21 25 31 36
59 58 56 56 46 45 53 46 30 34 22 16 17 13 11 18 4 26 29 26 19 19 20 9 7 12 12 12 9 15 6 7 9 12 13 7 14 13 14 12 15 19 6 13 24 31 28
62 65 63 56 43 46 45 34 31 33 30 15 11 23 9 20 22 17 20 18 18 16 13 12 5 12 10 8 6 12 9 14 7 9 13 10 9 21 22 16 20 20 25 16 17 19 55
66 64 61 53 51 42 40 33 31 33 32 24 10 20 12 16 41 33 27 22 17 16 12 20 11 8 6 7 4 5 7 9 13 18 18 7 7 10 14 12 15 18 30 11 32 61 59
64 61 56 48 39 41 41 33 34 33 32 25 9 13 13 21 28 32 34 32 29 24 19 11 10 7 9 7 5 7 5 9 10 9 9 8 2 7 10 11 45 51 41 53 56 49 64
Wind_Direction_850mb
7 4 4 4 5 0 357 351 345 340 338 335 334 329 322 318 319 316 310 306 298 286 265 248 246 277 252 241 256 211 159 95 82 54 252 235 244 237 243 245 247 237 252 251 258 257 266
6 7 4 3 360 357 353 349 345 341 339 336 331 326 322 315 315 315 314 310 302 291 277 259 245 255 258 256 158 189 171 196 206 247 259 258 286 283 282 271 255 260 250 263 258 252 253
5 5 8 5 1 1 359 357 353 348 342 338 335 326 321 316 320 320 325 325 312 299 277 246 244 265 267 247 206 200 201 218 243 242 249 254 275 261 298 272 254 256 267 261 258 256 244
6 8 11 12 8 3 1 359 355 354 350 343 337 331 323 320 329 343 345 339 310 293 278 218 225 257 260 223 215 212 217 234 239 236 247 264 263 271 274 272 262 258 249 255 245 235 241
8 9 13 14 10 6 3 359 357 356 355 352 344 336 330 332 1 5 25 19 10 337 168 180 338 218 266 237 212 218 224 233 218 244 250 258 258 257 263 245 254 234 252 246 246 246 233
11 11 9 12 12 7 3 2 359 357 359 3 356 343 335 4 48 24 9 1 6 6 208 257 252 241 241 233 190 209 212 221 232 245 246 240 245 244 235 246 251 252 235 229 254 205 207
9 11 10 7 9 9 5 2 2 -0 2 3 8 359 341 91 69 26 358 332 266 199 234 260 308 258 273 222 221 215 207 219 241 244 251 235 248 246 247 253 257 279 291 284 293 244 255
7 8 8 7 6 6 8 4 2 2 3 6 6 16 21 122 76 58 35 332 9 320 295 242 253 253 243 233 231 221 209 231 221 243 245 232 247 254 270 276 280 272 264 259 261 256 249
4 5 6 6 7 4 4 6 3 1 2 5 6 12 64 133 51 43 13 2 331 316 265 190 227 239 215 210 231 223 213 234 248 247 249 258 279 316 288 261 248 256 258 261 262 261 238
358 4 5 4 4 5 1 2 5 0 358 357 5 12 87 121 48 306 250 337 332 297 270 154 207 203 196 210 233 236 231 239 237 254 267 278 284 284 258 250 259 256 253 241 274 272 260
351 356 3 2 1 1 4 359 0 1 355 347 356 15 88 283 302 294 294 322 309 297 278 131 143 137 184 213 52 210 220 232 253 271 240 259 261 238 253 252 251 267 285 295 258 258 269
349 350 355 360 358 358 359 0 355 356 355 346 326 333 347 340 314 303 318 303 299 234 250 160 182 218 212 217 246 251 209 233 268 276 272 270 260 255 264 264 265 293 275 251 258 255 252
346 347 348 354 355 354 354 357 355 351 349 346 327 288 301 300 294 309 312 264 243 252 87 183 263 216 254 269 264 238 247 248 234 251 249 248 251 244 223 241 242 233 256 268 249 229 244
339 344 345 346 352 350 350 351 352 350 347 344 327 290 263 271 295 313 292 240 261 296 308 31 289 279 270 276 269 258 252 257 255 258 285 274 280 257 215 230 253 215 248 240 262 278 291
328 337 343 343 345 348 347 349 350 349 346 345 338 315 231 249 285 302 270 245 253 349 8 314 310 272 269 238 244 298 263 265 282 295 218 284 294 24 320 252 261 256 218 258 278 269 279
318 327 337 339 339 344 346 346 349 349 347 347 355 268 213 252 277 280 258 264 293 12 302 301 288 294 290 303 299 280 279 296 306 293 312 290 286 280 265 278 264 262 216 245 251 253 250
309 314 332 334 337 340 343 345 345 350 351 347 9 272 200 272 285 246 254 281 326 313 318 288 290 295 294 298 297 292 290 293 72 292 292 308 287 265 278 243 262 241 231 222 238 211 264
308 305 325 331 334 334 339 343 345 348 350 354 309 279 266 318 259 208 268 10 327 291 286 276 275 277 285 296 296 294 293 304 26 305 291 320 286 280 267 258 247 269 213 258 232 256 259
303 301 314 329 331 329 335 340 345 349 351 346 314 291 281 327 287 320 316 299 285 280 283 285 281 287 292 292 292 288 294 303 328 294 323 359 262 278 265 262 223 231 234 236 233 244 257
298 298 304 324 329 325 329 336 341 348 349 345 310 301 212 242 270 304 321 300 290 279 281 273 281 292 285 279 277 284 273 243 271 280 105 301 275 276 276 296 157 256 289 286 260 271 263
283 291 300 323 326 320 323 331 336 345 351 352 313 11 355 306 323 326 300 295 295 290 241 291 285 266 278 288 295 295 290 288 261 227 226 253 266 274 273 285 287 283 268 249 243 271 267
274 276 287 307 315 313 319 325 333 339 355 7 326 342 322 287 276 293 288 284 303 302 301 285 294 295 303 287 294 302 307 298 291 288 276 244 254 266 275 278 272 284 268 264 254 250 250
271 279 293 288 292 310 315 319 331 336 357 328 327 295 294 290 271 282 308 318 303 310 294 272 283 299 288 300 311 300 296 289 280 278 281 275 277 287 271 271 281 267 257 256 252 255 256
275 280 287 287 278 298 305 318 320 329 343 341 318 310 286 283 309 305 317 296 294 293 292 289 296 286 287 294 301 281 257 252 247 249 254 262 269 285 281 295 276 269 324 286 296 289 281
273 274 279 283 276 275 291 295 311 317 334 344 315 311 301 290 304 293 327 308 297 285 262 265 283 292 307 292 282 268 234 220 223 231 236 243 257 245 249 274 289 292 358 345 338 305 306
265 267 270 278 276 277 285 287 288 296 310 353 298 294 291 301 11 324 308 293 292 303 293 229 256 290 285 288 290 263 294 284 167 163 227 229 231 239 229 264 276 315 1 339 319 287 19
259 261 268 276 272 285 287 273 278 293 291 314 271 291 280 277 284 319 305 327 307 296 282 267 0 268 236 272 275 277 292 323 286 207 195 197 191 217 237 257 274 1 345 335 274 321 328
263 267 270 278 273 285 285 268 277 287 293 301 250 277 266 271 285 283 273 276 278 249 286 20 262 196 241 266 274 318 335 306 294 297 284 237 243 216 246 242 259 13 343 308 317 312 318
257 263 270 270 274 285 284 261 272 281 291 296 304 268 275 261 266 286 276 258 249 260 293 287 319 358 350 307 351 328 316 281 335 292 324 306 340 274 268 294 314 321 322 314 318 306 310